Regional Weather Roundup
Issued by NWS

Home | Current Version | Previous Version | Graphics & Text | Print | Product List | Glossary Off
Versions: 1 2 3 4 5 6 7 8 9 10 11 12 13 14 15 16 17 18 19 20 21 22 23 24 25 26 27 28 29 30 31 32 33 34 35 36 37 38 39 40 41 42 43 44 45 46 47 48 49 50

000
ASUS43 KMKX 202321
RWRWI

WISCONSIN REGIONAL WEATHER ROUNDUP
NATIONAL WEATHER SERVICE MILWAUKEE/SULLIVAN WI
600 PM CDT MON APR 20 2015

NOTE: "FAIR" INDICATES FEW OR NO CLOUDS BELOW 12,000 FEET WITH NO
SIGNIFICANT WEATHER AND/OR OBSTRUCTIONS TO VISIBILITY.

WIZ001-002-006>008-014>016-023>028-210000-
NORTHWEST WISCONSIN

CITY           SKY/WX    TMP DP  RH WIND       PRES   REMARKS
SUPERIOR ARPT  CLOUDY    38  28  69 W17G23    29.41R WCI  28
ASHLAND        CLOUDY    38  28  67 W12G23    29.38R WCI  30
HAYWARD        CLOUDY    38  26  62 W8G18     29.40R WCI  32
SIREN          CLOUDY    38  25  59 W14G21    29.45R WCI  30
CUMBERLAND     CLOUDY    36  27  69 W13G24    29.44S WCI  27
RICE LAKE      CLOUDY    38  27  64 W16G22    29.47R WCI  29
CHETEK         CLOUDY    38  28  66 W14G25    29.45R WCI  30
LADYSMITH      CLOUDY    39  30  69 W14       29.42S WCI  31
EAU CLAIRE     CLOUDY    41  25  53 W17G30    29.46S
MENOMONIE      CLOUDY    41  27  58 W20G26    29.48R
NEW RICHMOND   CLOUDY    40  26  57 W16G22    29.49S WCI  31
OSCEOLA        CLOUDY    40  26  56 W18G25    29.51F WCI  31
$$

WIZ003>005-009-010-017-018-210000-
NORTH CENTRAL WISCONSIN

CITY           SKY/WX    TMP DP  RH WIND       PRES   REMARKS
MANITOWISH WTR CLOUDY    36  31  83 W9        29.33R WCI  29
ARBOR VITAE    CLOUDY    37  31  79 W8G20     29.33S WCI  30
WOODRUFF       CLOUDY    37  31  79 W8G20     29.33S WCI  30
RHINELANDER    CLOUDY    36  30  79 W14       29.35R WCI  27
EAGLE RIVER    CLOUDY    35  30  81 W13       29.31S WCI  27
LAND O LAKES   CLOUDY    36  33  90 W9        29.31R WCI  29
PHILLIPS       CLOUDY    37  29  73 W8        29.36S WCI  31
TOMAHAWK       CLOUDY    36  29  76 W8G16     29.37R WCI  30
MEDFORD        CLOUDY    37  29  74 W15G21    29.40R WCI  27
MERRILL        CLOUDY    37  31  77 W14G21    29.39R WCI  29
$$

WIZ029-030-035-036-043>047-210000-
CENTRAL WISCONSIN

CITY           SKY/WX    TMP DP  RH WIND       PRES   REMARKS
WAUSAU         CLOUDY    38  30  73 W18G26    29.39R WCI  28
MOSINEE        CLOUDY    37  32  81 W18       29.42R WCI  27
MARSHFIELD     CLOUDY    39  29  67 W15G22    29.43R WCI  31
STEVENS POINT  CLOUDY    37  29  71 W17G28    29.44R WCI  28
WAUPACA        CLOUDY    43  33  68 W14G21    29.43R
WAUTOMA        CLOUDY    41  32  70 W14G25    29.47R
WISC RAPIDS    CLOUDY    40  28  62 W15G26    29.47R WCI  32
CAMP DOUGLAS   CLOUDY    41  34  75 W13       29.49R
$$

WIZ011>013-019>022-031-037>040-048>050-210000-
NORTHEAST WISCONSIN

CITY           SKY/WX    TMP DP  RH WIND       PRES   REMARKS
ANTIGO         CLOUDY    35  32  88 W17G26    29.37R WCI  25
SHAWANO        CLOUDY    43  33  69 W16G26    29.39R
OCONTO         CLOUDY    43  38  81 W14G21    29.35R
STURGEON BAY   CLOUDY    41  36  81 W12       29.38R
GREEN BAY      CLOUDY    43  34  70 W25       29.40R
MANITOWOC      CLOUDY    43  37  79 W17G30    29.41R
APPLETON       CLOUDY    39  34  81 W20G28    29.42R WCI  30
CLINTONVILLE   CLOUDY    41  34  75 W15G21    29.40R
OSHKOSH        CLOUDY    42  33  70 W13G22    29.43R
$$

WIZ032>034-041-042-053>061-210000-
SOUTHWEST WISCONSIN

CITY           SKY/WX    TMP DP  RH WIND       PRES   REMARKS
LA CROSSE      CLOUDY    45  29  53 W18G29    29.52R
SPARTA         CLOUDY    41  28  58 W10G18    29.51R
VIROQUA        CLOUDY    40  31  68 W16       29.51S WCI  32
BOSCOBEL       CLOUDY    46  30  53 W12       29.55R
PRAIRIE DU CHI CLOUDY    45  31  57 W17       29.57R
PLATTEVILLE    CLOUDY    44  32  63 W20G28    29.57R
$$

WIZ056-057-062-063-064-067-068-210000-
SOUTH CENTRAL WISCONSIN

CITY           SKY/WX    TMP DP  RH WIND       PRES   REMARKS
REEDSBURG      CLOUDY    41  31  67 W15       29.51R
BARABOO/DELLS  CLOUDY    40  30  66 W16G23    29.50R WCI  32
LONE ROCK      CLOUDY    44  30  57 W12G21    29.53R
MINERAL POINT  CLOUDY    45  32  61 W20G26    29.53S
MADISON        CLOUDY    43  30  60 W12G29    29.50R
MIDDLETON      CLOUDY    44  30  59 W17G32    29.52R
WATERTOWN      CLOUDY    42  32  68 W14       29.49R
MONROE         CLOUDY    43  32  65 W25G37    29.54R
JANESVILLE     CLOUDY    46  30  53 W23G32    29.52R
$$

WIZ051-052-058>065-066-070>072-210000-
SOUTHEAST WISCONSIN

CITY           SKY/WX    TMP DP  RH WIND       PRES   REMARKS
MILWAUKEE      CLOUDY    44  32  62 W20G31    29.49R
WAUKESHA       CLOUDY    41  30  65 W17G29    29.50R
MILWAUKEE/TIMM CLOUDY    43  30  61 W21G31    29.49R
RACINE         CLOUDY    44  31  60 W17G29    29.51R
BURLINGTON     CLOUDY    42  33  70 W14G23    29.51S
KENOSHA        PTSUNNY   44  34  67 W15G28    29.51R
FOND DU LAC    CLOUDY    42  32  67 W13G22    29.45R
SHEBOYGAN      CLOUDY    42  35  76 W21G29    29.43R
WEST BEND      CLOUDY    41  32  70 W15G25    29.47R
JUNEAU         CLOUDY    41  31  68 W20G26    29.49R
$$

LSZ147-162-210000-
LAKE SUPERIOR

STATION/POSITION TIME  TEMP    WIND        PRES    WAVE
                       AIR SEA DIR/SP/G            HT/PER
                 (UTC) (F)     (DEG/KT/KT) (MB)    (FT/S)
DEVILS ISLAND    2300   36     260/ 18/ 20  994.2R
PORT WING        2200   37     260/ 15/ 21  995.3R
SAXON HARBOR     2200   40     290/ 11/ 24  993.9R
$$

LMZ867-665-643>646-210000-
LAKE MICHIGAN

STATION/POSITION TIME  TEMP    WIND        PRES    WAVE
                       AIR SEA DIR/SP/G            HT/PER
                 (UTC) (F)     (DEG/KT/KT) (MB)    (FT/S)
CHAMBERS ISLAND  2200   38     230/  7/ 14  993.2R
NORTHPORT PIER   2200   38     280/ 10/ 19  992.9R
SISTER BAY       2202   38     290/ 20/ 22   N/A
KEWAUNEE LAKESHO 2300   43     260/ 12/ 21  994.4R
SHEBOYGAN LAKESH 2300   43     280/ 18/ 26  997.4R
PORT WASHINGTON  2207   45     260/  9/ 25  997.3R
MILWAUKEE LAKESH 2300   44     270/ 18/ 26   N/A
KENOSHA   LAKESH 2300   45     270/ 14/ 24  999.7R
$$

TC  - TEMPERATURE IN CELSIUS
VSB - VISIBILITY IN STATUTE MILES
WCI - WIND CHILL INDEX
HX  - HEAT INDEX




USA.gov is the U.S. government's official web portal to all federal, state and local government web resources and services.